Year,Month,Day,Hour,Minute,Value (Times are PST for windgust in km/hr)
2015,05,02,00,11,4.80
2015,05,02,00,13,1.60
2015,05,02,00,14,4.80
2015,05,02,00,15,1.60
2015,05,02,00,18,4.80
2015,05,02,00,19,1.60
2015,05,02,00,20,1.60
2015,05,02,00,22,1.60
2015,05,02,00,24,1.60
2015,05,02,00,29,1.60
2015,05,02,00,44,1.60
2015,05,02,00,54,4.80
2015,05,02,00,55,6.40
2015,05,02,00,56,3.20
2015,05,02,01,08,1.60
2015,05,02,01,11,1.60
2015,05,02,01,12,3.20
2015,05,02,01,14,4.80
2015,05,02,01,15,1.60
2015,05,02,01,16,1.60
2015,05,02,01,25,1.60
2015,05,02,01,31,1.60
2015,05,02,01,36,1.60
2015,05,02,01,45,3.20
2015,05,02,01,46,4.80
2015,05,02,01,47,3.20
2015,05,02,01,49,8.10
2015,05,02,01,50,4.80
2015,05,02,01,52,4.80
2015,05,02,01,53,3.20
2015,05,02,02,45,1.60
2015,05,02,04,09,1.60
2015,05,02,04,23,1.60
2015,05,02,05,45,1.60
2015,05,02,05,46,3.20
2015,05,02,05,47,4.80
2015,05,02,05,48,1.60
2015,05,02,05,49,3.20
2015,05,02,05,50,1.60
2015,05,02,06,22,1.60
2015,05,02,06,23,1.60
2015,05,02,06,41,3.20
2015,05,02,06,42,1.60
2015,05,02,07,11,1.60
2015,05,02,07,12,4.80
2015,05,02,07,13,3.20
2015,05,02,07,14,3.20
2015,05,02,07,15,4.80
2015,05,02,07,16,1.60
2015,05,02,07,21,3.20
2015,05,02,07,32,1.60
2015,05,02,08,00,1.60
2015,05,02,08,19,3.20
2015,05,02,08,23,1.60
2015,05,02,08,26,1.60
2015,05,02,08,28,3.20
2015,05,02,08,29,1.60
2015,05,02,08,31,1.60
2015,05,02,08,33,1.60
2015,05,02,08,35,1.60
2015,05,02,08,39,4.80
2015,05,02,08,40,4.80
2015,05,02,08,41,6.40
2015,05,02,08,42,1.60
2015,05,02,08,43,1.60
2015,05,02,08,46,1.60
2015,05,02,08,47,1.60
2015,05,02,08,48,1.60
2015,05,02,08,49,1.60
2015,05,02,08,50,6.40
2015,05,02,08,51,1.60
2015,05,02,08,52,4.80
2015,05,02,08,53,1.60
2015,05,02,08,55,1.60
2015,05,02,08,56,4.80
2015,05,02,08,57,4.80
2015,05,02,08,58,4.80
2015,05,02,09,00,4.80
2015,05,02,09,01,8.10
2015,05,02,09,02,4.80
2015,05,02,09,03,4.80
2015,05,02,09,04,4.80
2015,05,02,09,05,6.40
2015,05,02,09,06,8.10
2015,05,02,09,07,3.20
2015,05,02,09,08,4.80
2015,05,02,09,10,8.10
2015,05,02,09,11,4.80
2015,05,02,09,13,4.80
2015,05,02,09,14,4.80
2015,05,02,09,15,4.80
2015,05,02,09,16,8.10
2015,05,02,09,17,6.40
2015,05,02,09,18,1.60
2015,05,02,09,19,9.60
2015,05,02,09,20,8.10
2015,05,02,09,21,6.40
2015,05,02,09,22,4.80
2015,05,02,09,23,8.10
2015,05,02,09,24,6.40
2015,05,02,09,25,1.60
2015,05,02,09,27,8.10
2015,05,02,09,28,4.80
2015,05,02,09,29,1.60
2015,05,02,09,31,6.40
2015,05,02,09,32,6.40
2015,05,02,09,33,6.40
2015,05,02,09,34,6.40
2015,05,02,09,35,4.80
2015,05,02,09,36,4.80
2015,05,02,09,37,4.80
2015,05,02,09,38,3.20
2015,05,02,09,39,1.60
2015,05,02,09,40,8.10
2015,05,02,09,41,12.90
2015,05,02,09,42,12.90
2015,05,02,09,43,9.60
2015,05,02,09,44,9.60
2015,05,02,09,45,8.10
2015,05,02,09,46,8.10
2015,05,02,09,47,6.40
2015,05,02,09,48,6.40
2015,05,02,09,49,6.40
2015,05,02,09,50,8.10
2015,05,02,09,51,4.80
2015,05,02,09,52,8.10
2015,05,02,09,53,6.40
2015,05,02,09,54,4.80
2015,05,02,09,55,3.20
2015,05,02,09,56,8.10
2015,05,02,09,57,14.50
2015,05,02,09,58,8.10
2015,05,02,09,59,3.20
2015,05,02,10,00,6.40
2015,05,02,10,01,3.20
2015,05,02,10,02,6.40
2015,05,02,10,03,6.40
2015,05,02,10,04,11.30
2015,05,02,10,05,9.60
2015,05,02,10,06,6.40
2015,05,02,10,07,8.10
2015,05,02,10,08,11.30
2015,05,02,10,09,8.10
2015,05,02,10,10,11.30
2015,05,02,10,11,9.60
2015,05,02,10,12,14.50
2015,05,02,10,13,9.60
2015,05,02,10,14,9.60
2015,05,02,10,15,4.80
2015,05,02,10,16,8.10
2015,05,02,10,17,9.60
2015,05,02,10,18,9.60
2015,05,02,10,19,14.50
2015,05,02,10,20,8.10
2015,05,02,10,21,9.60
2015,05,02,10,22,12.90
2015,05,02,10,23,14.50
2015,05,02,10,24,9.60
2015,05,02,10,25,9.60
2015,05,02,10,26,8.10
2015,05,02,10,27,19.30
2015,05,02,10,28,9.60
2015,05,02,10,29,8.10
2015,05,02,10,30,9.60
2015,05,02,10,31,9.60
2015,05,02,10,32,14.50
2015,05,02,10,33,20.90
2015,05,02,10,34,17.70
2015,05,02,10,35,11.30
2015,05,02,10,36,11.30
2015,05,02,10,37,8.10
2015,05,02,10,38,17.70
2015,05,02,10,39,14.50
2015,05,02,10,40,11.30
2015,05,02,10,41,11.30
2015,05,02,10,42,9.60
2015,05,02,10,43,9.60
2015,05,02,10,44,8.10
2015,05,02,10,45,8.10
2015,05,02,10,46,8.10
2015,05,02,10,47,12.90
2015,05,02,10,48,16.10
2015,05,02,10,49,8.10
2015,05,02,10,50,8.10
2015,05,02,10,51,16.10
2015,05,02,10,52,11.30
2015,05,02,10,53,8.10
2015,05,02,10,54,11.30
2015,05,02,10,55,6.40
2015,05,02,10,56,11.30
2015,05,02,10,57,16.10
2015,05,02,10,58,9.60
2015,05,02,10,59,11.30
2015,05,02,11,00,9.60
2015,05,02,11,01,9.60
2015,05,02,11,02,4.80
2015,05,02,11,03,1.60
2015,05,02,11,04,14.50
2015,05,02,11,05,9.60
2015,05,02,11,06,11.30
2015,05,02,11,07,12.90
2015,05,02,11,08,11.30
2015,05,02,11,09,20.90
2015,05,02,11,10,9.60
2015,05,02,11,11,16.10
2015,05,02,11,12,11.30
2015,05,02,11,13,11.30
2015,05,02,11,14,11.30
2015,05,02,11,15,11.30
2015,05,02,11,16,12.90
2015,05,02,11,17,8.10
2015,05,02,11,18,8.10
2015,05,02,11,19,8.10
2015,05,02,11,20,6.40
2015,05,02,11,21,16.10
2015,05,02,11,22,11.30
2015,05,02,11,23,14.50
2015,05,02,11,24,12.90
2015,05,02,11,25,11.30
2015,05,02,11,26,8.10
2015,05,02,11,27,9.60
2015,05,02,11,28,9.60
2015,05,02,11,29,12.90
2015,05,02,11,30,17.70
2015,05,02,11,31,8.10
2015,05,02,11,32,14.50
2015,05,02,11,33,14.50
2015,05,02,11,34,14.50
2015,05,02,11,35,8.10
2015,05,02,11,36,11.30
2015,05,02,11,37,11.30
2015,05,02,11,38,8.10
2015,05,02,11,39,8.10
2015,05,02,11,40,14.50
2015,05,02,11,41,9.60
2015,05,02,11,42,9.60
2015,05,02,11,43,14.50
2015,05,02,11,44,14.50
2015,05,02,11,45,16.10
2015,05,02,11,46,12.90
2015,05,02,11,47,16.10
2015,05,02,11,48,16.10
2015,05,02,11,49,16.10
2015,05,02,11,50,4.80
2015,05,02,11,51,14.50
2015,05,02,11,52,17.70
2015,05,02,11,53,14.50
2015,05,02,11,54,14.50
2015,05,02,11,55,14.50
2015,05,02,11,56,14.50
2015,05,02,11,57,11.30
2015,05,02,11,58,16.10
2015,05,02,11,59,11.30
2015,05,02,12,00,12.90
2015,05,02,12,01,12.90
2015,05,02,12,02,11.30
2015,05,02,12,03,11.30
2015,05,02,12,04,8.10
2015,05,02,12,05,17.70
2015,05,02,12,06,16.10
2015,05,02,12,07,11.30
2015,05,02,12,08,20.90
2015,05,02,12,09,14.50
2015,05,02,12,10,12.90
2015,05,02,12,11,9.60
2015,05,02,12,12,16.10
2015,05,02,12,13,16.10
2015,05,02,12,14,11.30
2015,05,02,12,15,9.60
2015,05,02,12,16,11.30
2015,05,02,12,17,12.90
2015,05,02,12,18,14.50
2015,05,02,12,19,17.70
2015,05,02,12,20,9.60
2015,05,02,12,21,17.70
2015,05,02,12,22,17.70
2015,05,02,12,23,11.30
2015,05,02,12,24,16.10
2015,05,02,12,25,12.90
2015,05,02,12,26,14.50
2015,05,02,12,27,17.70
2015,05,02,12,28,17.70
2015,05,02,12,29,17.70
2015,05,02,12,30,11.30
2015,05,02,12,31,16.10
2015,05,02,12,32,16.10
2015,05,02,12,33,17.70
2015,05,02,12,34,16.10
2015,05,02,12,35,4.80
2015,05,02,12,36,14.50
2015,05,02,12,37,9.60
2015,05,02,12,38,16.10
2015,05,02,12,39,16.10
2015,05,02,12,40,17.70
2015,05,02,12,41,11.30
2015,05,02,12,42,16.10
2015,05,02,12,43,11.30
2015,05,02,12,44,14.50
2015,05,02,12,45,3.20
2015,05,02,12,46,8.10
2015,05,02,12,47,9.60
2015,05,02,12,48,3.20
2015,05,02,12,49,11.30
2015,05,02,12,50,17.70
2015,05,02,12,51,14.50
2015,05,02,12,52,16.10
2015,05,02,12,53,19.30
2015,05,02,12,54,9.60
2015,05,02,12,55,14.50
2015,05,02,12,56,14.50
2015,05,02,12,57,16.10
2015,05,02,12,58,11.30
2015,05,02,12,59,16.10
2015,05,02,13,00,11.30
2015,05,02,13,01,8.10
2015,05,02,13,02,9.60
2015,05,02,13,03,4.80
2015,05,02,13,04,9.60
2015,05,02,13,05,16.10
2015,05,02,13,06,9.60
2015,05,02,13,07,11.30
2015,05,02,13,08,9.60
2015,05,02,13,09,8.10
2015,05,02,13,10,11.30
2015,05,02,13,11,14.50
2015,05,02,13,12,11.30
2015,05,02,13,13,9.60
2015,05,02,13,14,8.10
2015,05,02,13,15,12.90
2015,05,02,13,16,11.30
2015,05,02,13,17,8.10
2015,05,02,13,18,9.60
2015,05,02,13,19,9.60
2015,05,02,13,20,11.30
2015,05,02,13,21,12.90
2015,05,02,13,22,11.30
2015,05,02,13,23,9.60
2015,05,02,13,24,11.30
2015,05,02,13,25,14.50
2015,05,02,13,26,12.90
2015,05,02,13,27,16.10
2015,05,02,13,28,12.90
2015,05,02,13,29,16.10
2015,05,02,13,30,16.10
2015,05,02,13,31,14.50
2015,05,02,13,32,14.50
2015,05,02,13,33,16.10
2015,05,02,13,34,11.30
2015,05,02,13,35,11.30
2015,05,02,13,36,14.50
2015,05,02,13,37,8.10
2015,05,02,13,38,16.10
2015,05,02,13,39,16.10
2015,05,02,13,40,9.60
2015,05,02,13,41,14.50
2015,05,02,13,42,17.70
2015,05,02,13,43,11.30
2015,05,02,13,44,11.30
2015,05,02,13,45,12.90
2015,05,02,13,46,11.30
2015,05,02,13,47,14.50
2015,05,02,13,48,11.30
2015,05,02,13,49,11.30
2015,05,02,13,50,9.60
2015,05,02,13,51,16.10
2015,05,02,13,52,9.60
2015,05,02,13,53,11.30
2015,05,02,13,54,9.60
2015,05,02,13,55,11.30
2015,05,02,13,56,19.30
2015,05,02,13,57,14.50
2015,05,02,13,58,9.60
2015,05,02,13,59,14.50
2015,05,02,14,00,9.60
2015,05,02,14,01,8.10
2015,05,02,14,02,11.30
2015,05,02,14,03,17.70
2015,05,02,14,04,6.40
2015,05,02,14,05,9.60
2015,05,02,14,06,6.40
2015,05,02,14,07,17.70
2015,05,02,14,08,16.10
2015,05,02,14,09,16.10
2015,05,02,14,10,11.30
2015,05,02,14,11,9.60
2015,05,02,14,12,9.60
2015,05,02,14,13,9.60
2015,05,02,14,14,8.10
2015,05,02,14,15,11.30
2015,05,02,14,16,9.60
2015,05,02,14,17,9.60
2015,05,02,14,18,8.10
2015,05,02,14,19,6.40
2015,05,02,14,20,8.10
2015,05,02,14,21,6.40
2015,05,02,14,22,8.10
2015,05,02,14,23,8.10
2015,05,02,14,24,14.50
2015,05,02,14,25,8.10
2015,05,02,14,26,16.10
2015,05,02,14,27,16.10
2015,05,02,14,28,16.10
2015,05,02,14,29,8.10
2015,05,02,14,30,9.60
2015,05,02,14,31,11.30
2015,05,02,14,32,8.10
2015,05,02,14,33,6.40
2015,05,02,14,34,3.20
2015,05,02,14,35,11.30
2015,05,02,14,36,14.50
2015,05,02,14,37,9.60
2015,05,02,14,38,11.30
2015,05,02,14,39,11.30
2015,05,02,14,40,11.30
2015,05,02,14,41,9.60
2015,05,02,14,42,11.30
2015,05,02,14,43,8.10
2015,05,02,14,44,8.10
2015,05,02,14,45,17.70
2015,05,02,14,46,11.30
2015,05,02,14,47,11.30
2015,05,02,14,48,16.10
2015,05,02,14,49,4.80
2015,05,02,14,50,9.60
2015,05,02,14,51,8.10
2015,05,02,14,52,9.60
2015,05,02,14,53,8.10
2015,05,02,14,54,12.90
2015,05,02,14,55,8.10
2015,05,02,14,56,14.50
2015,05,02,14,57,9.60
2015,05,02,14,58,14.50
2015,05,02,14,59,14.50
2015,05,02,15,00,9.60
2015,05,02,15,01,11.30
2015,05,02,15,02,16.10
2015,05,02,15,03,8.10
2015,05,02,15,04,8.10
2015,05,02,15,05,6.40
2015,05,02,15,06,9.60
2015,05,02,15,07,11.30
2015,05,02,15,08,9.60
2015,05,02,15,09,14.50
2015,05,02,15,10,8.10
2015,05,02,15,11,4.80
2015,05,02,15,12,3.20
2015,05,02,15,13,11.30
2015,05,02,15,14,9.60
2015,05,02,15,15,8.10
2015,05,02,15,16,4.80
2015,05,02,15,17,17.70
2015,05,02,15,18,14.50
2015,05,02,15,19,8.10
2015,05,02,15,20,8.10
2015,05,02,15,21,11.30
2015,05,02,15,22,11.30
2015,05,02,15,23,17.70
2015,05,02,15,24,9.60
2015,05,02,15,25,9.60
2015,05,02,15,26,17.70
2015,05,02,15,27,16.10
2015,05,02,15,28,17.70
2015,05,02,15,29,17.70
2015,05,02,15,30,19.30
2015,05,02,15,31,17.70
2015,05,02,15,32,17.70
2015,05,02,15,33,16.10
2015,05,02,15,34,9.60
2015,05,02,15,35,6.40
2015,05,02,15,36,9.60
2015,05,02,15,37,11.30
2015,05,02,15,38,14.50
2015,05,02,15,39,9.60
2015,05,02,15,40,8.10
2015,05,02,15,41,17.70
2015,05,02,15,42,14.50
2015,05,02,15,43,14.50
2015,05,02,15,44,14.50
2015,05,02,15,45,8.10
2015,05,02,15,46,11.30
2015,05,02,15,47,8.10
2015,05,02,15,48,6.40
2015,05,02,15,49,8.10
2015,05,02,15,50,9.60
2015,05,02,15,51,8.10
2015,05,02,15,52,9.60
2015,05,02,15,53,4.80
2015,05,02,15,54,14.50
2015,05,02,15,55,16.10
2015,05,02,15,56,11.30
2015,05,02,15,57,11.30
2015,05,02,15,58,12.90
2015,05,02,15,59,14.50
2015,05,02,16,00,9.60
2015,05,02,16,01,9.60
2015,05,02,16,02,8.10
2015,05,02,16,03,6.40
2015,05,02,16,04,3.20
2015,05,02,16,05,16.10
2015,05,02,16,06,11.30
2015,05,02,16,07,14.50
2015,05,02,16,08,14.50
2015,05,02,16,09,16.10
2015,05,02,16,10,12.90
2015,05,02,16,11,11.30
2015,05,02,16,12,9.60
2015,05,02,16,13,9.60
2015,05,02,16,14,11.30
2015,05,02,16,15,9.60
2015,05,02,16,16,9.60
2015,05,02,16,17,6.40
2015,05,02,16,18,6.40
2015,05,02,16,19,17.70
2015,05,02,16,20,9.60
2015,05,02,16,21,8.10
2015,05,02,16,22,9.60
2015,05,02,16,23,11.30
2015,05,02,16,24,11.30
2015,05,02,16,25,9.60
2015,05,02,16,26,4.80
2015,05,02,16,27,16.10
2015,05,02,16,28,17.70
2015,05,02,16,29,8.10
2015,05,02,16,30,4.80
2015,05,02,16,31,8.10
2015,05,02,16,32,9.60
2015,05,02,16,33,4.80
2015,05,02,16,34,4.80
2015,05,02,16,35,8.10
2015,05,02,16,36,11.30
2015,05,02,16,37,9.60
2015,05,02,16,38,6.40
2015,05,02,16,39,9.60
2015,05,02,16,40,6.40
2015,05,02,16,41,16.10
2015,05,02,16,42,16.10
2015,05,02,16,43,14.50
2015,05,02,16,44,11.30
2015,05,02,16,45,6.40
2015,05,02,16,46,6.40
2015,05,02,16,47,11.30
2015,05,02,16,48,9.60
2015,05,02,16,49,6.40
2015,05,02,16,50,9.60
2015,05,02,16,51,12.90
2015,05,02,16,52,12.90
2015,05,02,16,53,14.50
2015,05,02,16,54,12.90
2015,05,02,16,55,11.30
2015,05,02,16,56,9.60
2015,05,02,16,57,8.10
2015,05,02,16,58,6.40
2015,05,02,16,59,3.20
2015,05,02,17,00,9.60
2015,05,02,17,01,14.50
2015,05,02,17,02,8.10
2015,05,02,17,03,12.90
2015,05,02,17,04,12.90
2015,05,02,17,05,11.30
2015,05,02,17,06,8.10
2015,05,02,17,07,9.60
2015,05,02,17,08,6.40
2015,05,02,17,09,9.60
2015,05,02,17,10,9.60
2015,05,02,17,11,16.10
2015,05,02,17,12,16.10
2015,05,02,17,13,3.20
2015,05,02,17,14,1.60
2015,05,02,17,15,14.50
2015,05,02,17,16,14.50
2015,05,02,17,17,9.60
2015,05,02,17,18,9.60
2015,05,02,17,19,9.60
2015,05,02,17,20,9.60
2015,05,02,17,21,4.80
2015,05,02,17,22,3.20
2015,05,02,17,23,9.60
2015,05,02,17,24,8.10
2015,05,02,17,25,8.10
2015,05,02,17,26,9.60
2015,05,02,17,27,16.10
2015,05,02,17,28,19.30
2015,05,02,17,29,14.50
2015,05,02,17,30,4.80
2015,05,02,17,31,8.10
2015,05,02,17,32,6.40
2015,05,02,17,33,6.40
2015,05,02,17,34,4.80
2015,05,02,17,35,8.10
2015,05,02,17,36,6.40
2015,05,02,17,37,8.10
2015,05,02,17,38,9.60
2015,05,02,17,39,9.60
2015,05,02,17,40,4.80
2015,05,02,17,41,16.10
2015,05,02,17,42,8.10
2015,05,02,17,43,4.80
2015,05,02,17,44,8.10
2015,05,02,17,45,8.10
2015,05,02,17,46,9.60
2015,05,02,17,47,9.60
2015,05,02,17,48,8.10
2015,05,02,17,49,11.30
2015,05,02,17,50,9.60
2015,05,02,17,51,14.50
2015,05,02,17,52,9.60
2015,05,02,17,53,8.10
2015,05,02,17,54,11.30
2015,05,02,17,55,11.30
2015,05,02,17,56,9.60
2015,05,02,17,57,8.10
2015,05,02,17,58,8.10
2015,05,02,17,59,4.80
2015,05,02,18,00,1.60
2015,05,02,18,01,8.10
2015,05,02,18,02,6.40
2015,05,02,18,03,6.40
2015,05,02,18,04,8.10
2015,05,02,18,05,6.40
2015,05,02,18,06,8.10
2015,05,02,18,07,8.10
2015,05,02,18,08,6.40
2015,05,02,18,09,6.40
2015,05,02,18,10,8.10
2015,05,02,18,11,3.20
2015,05,02,18,12,4.80
2015,05,02,18,13,9.60
2015,05,02,18,14,9.60
2015,05,02,18,15,6.40
2015,05,02,18,16,4.80
2015,05,02,18,17,6.40
2015,05,02,18,18,1.60
2015,05,02,18,19,4.80
2015,05,02,18,20,8.10
2015,05,02,18,21,4.80
2015,05,02,18,22,8.10
2015,05,02,18,23,9.60
2015,05,02,18,24,9.60
2015,05,02,18,25,8.10
2015,05,02,18,26,9.60
2015,05,02,18,27,4.80
2015,05,02,18,28,4.80
2015,05,02,18,30,8.10
2015,05,02,18,31,8.10
2015,05,02,18,32,6.40
2015,05,02,18,33,9.60
2015,05,02,18,34,9.60
2015,05,02,18,35,4.80
2015,05,02,18,36,6.40
2015,05,02,18,37,1.60
2015,05,02,18,38,8.10
2015,05,02,18,39,3.20
2015,05,02,18,40,6.40
2015,05,02,18,41,6.40
2015,05,02,18,42,3.20
2015,05,02,18,43,3.20
2015,05,02,18,45,6.40
2015,05,02,18,46,3.20
2015,05,02,18,48,1.60
2015,05,02,18,49,1.60
2015,05,02,18,50,1.60
2015,05,02,18,51,9.60
2015,05,02,18,52,8.10
2015,05,02,18,53,4.80
2015,05,02,18,54,3.20
2015,05,02,18,55,6.40
2015,05,02,18,56,8.10
2015,05,02,18,57,6.40
2015,05,02,18,58,3.20
2015,05,02,18,59,9.60
2015,05,02,19,00,3.20
2015,05,02,19,01,6.40
2015,05,02,19,02,9.60
2015,05,02,19,03,8.10
2015,05,02,19,04,6.40
2015,05,02,19,05,9.60
2015,05,02,19,06,6.40
2015,05,02,19,07,4.80
2015,05,02,19,08,1.60
2015,05,02,19,09,6.40
2015,05,02,19,10,8.10
2015,05,02,19,11,9.60
2015,05,02,19,12,4.80
2015,05,02,19,13,3.20
2015,05,02,19,14,3.20
2015,05,02,19,15,1.60
2015,05,02,19,16,1.60
2015,05,02,19,17,6.40
2015,05,02,19,18,6.40
2015,05,02,19,19,8.10
2015,05,02,19,20,9.60
2015,05,02,19,21,3.20
2015,05,02,19,22,8.10
2015,05,02,19,23,8.10
2015,05,02,19,25,4.80
2015,05,02,19,26,4.80
2015,05,02,19,27,6.40
2015,05,02,19,28,1.60
2015,05,02,19,30,1.60
2015,05,02,19,31,1.60
2015,05,02,19,32,4.80
2015,05,02,19,33,1.60
2015,05,02,19,36,1.60
2015,05,02,19,37,6.40
2015,05,02,19,38,6.40
2015,05,02,19,39,1.60
2015,05,02,19,40,3.20
2015,05,02,19,41,1.60
2015,05,02,19,42,1.60
2015,05,02,19,43,1.60
2015,05,02,19,44,1.60
2015,05,02,19,49,1.60
2015,05,02,20,04,1.60
2015,05,02,20,13,1.60
2015,05,02,20,17,1.60
2015,05,02,20,20,1.60
2015,05,02,20,28,1.60
2015,05,02,20,49,1.60
2015,05,02,20,56,1.60
2015,05,02,20,57,1.60
2015,05,02,21,07,1.60
2015,05,02,21,48,1.60
2015,05,02,22,38,1.60
2015,05,02,22,39,1.60
2015,05,02,22,41,1.60
2015,05,02,22,43,1.60
2015,05,02,23,15,1.60
2015,05,02,23,36,1.60
2015,05,02,23,42,1.60
2015,05,02,23,56,1.60
2015,05,02,23,59,1.60
